Date,TemperatureHighF,TemperatureAvgF,TemperatureLowF,DewpointHighF,DewpointAvgF,DewpointLowF,HumidityHigh,HumidityAvg,HumidityLow,PressureMaxIn,PressureMinIn,WindSpeedMaxMPH,WindSpeedAvgMPH,GustSpeedMaxMPH,PrecipitationSumIn
2012-1-1,33.5,30.7,27.3,32.7,26.4,20.0,98,85,69,29.95,29.59,31,14,43,0.07
2012-1-2,19.2,16.1,10.4,9.8,6.1,1.7,74,64,57,30.50,30.18,24,10,41,0.00
2012-1-3,26.2,17.2,6.2,13.2,5.6,0.6,81,61,43,30.49,29.97,20,7,29,0.00
2012-1-4,33.2,27.3,24.2,21.8,18.4,12.7,81,69,57,30.07,29.93,18,4,22,0.00
2012-1-5,51.4,36.6,20.5,34.3,27.2,17.8,92,71,48,29.99,29.62,25,6,27,0.00
2012-1-6,49.6,43.7,36.8,33.8,29.8,25.8,67,58,42,29.78,29.62,17,4,18,0.00
2012-1-7,37.7,32.7,23.1,27.1,23.0,19.0,88,68,57,30.27,29.78,20,5,30,0.00
2012-1-8,40.0,29.3,18.6,27.4,22.8,16.0,92,77,59,30.36,30.21,18,4,18,0.00
2012-1-9,45.3,37.0,29.3,30.7,27.4,24.8,84,69,51,30.20,29.89,28,9,34,0.00
2012-1-10,51.1,38.3,24.0,33.8,29.6,22.3,95,72,50,30.01,29.70,24,5,28,0.00
2012-1-11,51.4,38.5,25.2,33.5,28.6,20.8,86,69,46,29.70,29.57,18,6,29,0.00
2012-1-12,25.1,16.1,12.4,20.9,12.8,8.7,89,87,80,29.71,29.58,21,10,24,0.00
2012-1-13,16.7,14.1,11.8,10.4,8.7,5.8,86,79,73,30.07,29.71,18,7,24,0.00
2012-1-14,18.6,14.1,12.3,8.7,5.8,4.2,78,69,56,30.23,30.06,13,1,14,0.00
2012-1-15,33.8,24.6,16.5,24.7,18.7,8.7,87,78,65,30.26,29.90,18,8,25,0.00
2012-1-16,40.1,31.2,25.3,28.9,25.5,21.7,90,80,64,29.90,29.73,10,2,12,0.00
2012-1-17,30.5,20.0,7.9,26.1,13.2,-1.4,89,75,63,30.28,29.78,18,6,26,0.00
2012-1-18,21.9,11.7,1.0,17.3,2.9,-4.5,85,68,51,30.29,29.74,20,7,29,0.00
2012-1-19,22.2,-0.2,-7.5,17.3,-13.0,-19.7,82,55,38,30.27,29.75,24,6,30,0.00
2012-1-20,4.5,-1.3,-8.4,-0.6,-7.7,-16.1,82,74,59,30.30,30.23,5,0,6,0.00
2012-1-21,18.1,4.7,-9.6,5.9,-4.5,-15.1,82,67,40,30.35,30.08,9,1,10,0.00
2012-1-22,30.2,22.7,12.6,29.9,19.9,6.5,99,89,74,30.07,29.46,18,4,24,0.00
2012-1-23,30.8,27.5,23.4,30.8,25.1,18.7,100,90,80,29.88,29.34,18,6,25,0.00
2012-1-24,29.3,23.0,17.0,20.7,17.7,13.8,88,80,70,30.36,29.88,14,3,20,0.09
2012-1-25,32.3,25.9,18.3,23.8,20.3,15.2,88,79,70,30.41,30.01,13,3,18,0.00
2012-1-26,34.2,30.6,26.4,31.7,28.0,22.0,98,91,74,30.01,29.69,16,5,21,0.05
2012-1-27,37.7,30.6,22.8,30.6,22.2,14.7,93,72,40,29.92,29.73,24,7,29,0.00
2012-1-28,31.9,25.2,20.6,28.8,15.4,12.8,88,67,55,30.04,29.80,23,8,30,0.00
2012-1-29,24.2,18.7,10.2,19.6,10.9,4.4,91,72,51,30.23,29.96,13,3,16,0.00
2012-1-30,41.3,27.6,10.9,28.4,19.8,5.7,89,73,58,30.18,29.76,14,2,15,0.05
2012-1-31,50.6,42.8,27.1,36.3,33.6,24.0,90,71,54,29.92,29.66,23,7,29,0.01
2012-2-1,36.8,33.2,28.2,32.6,29.4,27.0,96,86,80,30.17,29.92,15,2,19,0.00
2012-2-2,32.7,30.6,28.0,30.3,28.9,27.5,100,94,88,30.43,30.17,9,2,10,0.00
2012-2-3,32.2,30.6,26.7,28.2,27.5,24.2,91,88,84,30.52,30.43,7,1,12,0.00
2012-2-4,43.4,31.1,18.7,28.8,24.0,17.0,95,77,52,30.43,30.26,8,1,9,0.00
2012-2-5,31.3,28.0,23.3,27.0,25.3,21.8,96,90,83,30.38,30.21,11,3,15,0.00
2012-2-6,38.7,30.5,26.2,28.7,25.9,23.4,91,83,65,30.23,30.11,16,4,16,0.00
2012-2-7,31.9,27.2,20.0,27.0,19.9,14.2,89,74,63,30.48,30.24,16,4,20,0.00
2012-2-8,30.8,22.6,13.9,14.2,8.5,0.8,81,57,33,30.47,30.30,13,2,14,0.00
2012-2-9,33.5,25.9,18.4,23.7,15.1,9.5,76,64,43,30.30,29.98,27,7,31,0.00
2012-2-10,30.7,19.7,8.1,26.4,11.5,-4.8,88,71,46,30.40,29.90,18,7,26,0.00
2012-2-11,17.2,10.8,3.8,-2.3,-6.3,-11.6,56,45,38,30.50,30.40,18,8,25,0.00
2012-2-12,30.4,20.0,11.4,5.7,0.8,-2.7,54,43,28,30.42,30.19,12,5,20,0.00
2012-2-13,29.9,24.3,14.7,26.1,16.0,3.6,94,72,49,30.19,29.81,25,4,29,0.00
2012-2-14,32.9,30.2,27.3,28.4,26.4,25.0,95,86,74,29.92,29.78,18,4,21,0.05
2012-2-15,44.6,35.1,30.2,33.7,30.0,27.1,92,82,64,30.03,29.92,23,4,23,0.02
2012-2-16,42.6,34.2,29.0,29.2,24.3,18.5,94,69,41,30.11,29.99,20,5,26,0.00
2012-2-17,42.1,32.9,25.8,29.7,25.7,21.9,90,75,58,30.12,29.98,20,4,25,0.00
2012-2-18,36.7,29.3,21.7,27.1,19.0,13.5,85,67,42,30.28,30.08,13,2,19,0.00
2012-2-19,40.0,27.9,15.2,21.9,16.9,12.6,91,67,33,30.24,30.18,14,2,15,0.00
2012-2-20,41.6,31.3,20.0,25.1,20.1,15.8,87,65,41,30.24,29.83,19,6,24,0.00
2012-2-21,42.0,35.1,32.6,33.0,28.4,20.4,93,77,59,29.83,29.55,23,9,29,0.00
2012-2-22,40.1,33.5,26.7,25.3,22.4,18.8,84,65,45,29.59,29.42,15,4,19,0.00
2012-2-23,38.7,30.8,20.9,27.0,22.1,18.2,91,71,52,29.64,29.46,9,1,14,0.00
2012-2-24,31.4,28.0,22.0,27.6,21.2,12.6,95,76,58,29.97,29.60,18,6,24,0.01
2012-2-25,32.2,22.4,14.4,16.2,12.0,6.3,74,64,49,30.28,29.97,16,5,22,0.00
2012-2-26,46.0,31.8,19.7,31.1,20.8,12.5,77,64,52,30.27,29.85,30,12,38,0.00
2012-2-27,33.6,28.3,22.2,20.2,18.3,17.0,83,66,53,30.49,30.01,23,8,31,0.00
2012-2-28,35.3,29.6,21.9,31.1,23.9,17.5,94,80,58,30.48,29.78,16,3,25,0.20
2012-2-29,40.7,33.8,31.4,40.1,31.5,27.8,100,92,76,29.78,29.35,27,8,29,0.53
2012-3-1,34.5,32.6,30.7,32.3,28.2,26.4,94,84,76,29.85,29.61,11,2,15,0.02
2012-3-2,33.0,30.2,26.4,31.1,28.1,22.2,97,92,76,29.82,29.57,18,2,21,0.08
2012-3-3,29.0,27.1,24.6,22.9,20.8,18.1,86,77,70,29.84,29.56,18,7,23,0.00
2012-3-4,25.9,23.5,19.8,21.1,18.9,15.9,90,83,75,30.10,29.83,9,2,12,0.00
2012-3-5,32.6,24.9,13.3,23.6,16.7,10.6,90,72,51,30.33,30.10,19,6,25,0.00
2012-3-6,61.1,46.6,29.6,44.9,34.1,23.6,78,63,52,30.10,29.74,30,11,35,0.00
2012-3-7,59.9,52.1,36.4,52.8,42.4,31.7,93,71,50,29.83,29.63,32,14,35,0.20
2012-3-8,37.1,33.6,28.5,32.3,21.7,5.7,85,63,33,30.26,29.83,25,10,34,0.00
2012-3-9,34.1,26.8,19.4,11.6,7.3,2.9,62,44,28,30.63,30.26,18,6,29,0.00
2012-3-10,62.2,46.8,28.9,31.8,24.3,11.2,56,42,27,30.44,30.07,36,16,43,0.00
2012-3-11,64.0,54.1,44.4,45.6,31.9,27.7,68,44,26,30.16,29.91,24,7,26,0.00
2012-3-12,57.6,51.9,48.6,49.6,45.9,42.3,97,81,59,29.91,29.69,26,8,29,0.32
2012-3-13,65.5,53.0,42.4,45.1,34.4,26.9,81,53,27,30.10,29.83,13,2,18,0.00
2012-3-14,74.8,61.6,43.3,59.3,50.4,33.4,84,67,57,30.00,29.83,25,8,30,0.00
2012-3-15,74.6,58.9,47.5,58.2,53.0,46.7,100,83,52,30.03,29.89,6,0,9,0.00
2012-3-16,76.3,61.3,44.4,60.9,52.0,41.9,91,73,55,30.04,29.93,23,3,25,0.00
2012-3-17,79.6,70.1,61.5,61.8,57.7,54.0,84,66,42,29.96,29.88,30,11,38,0.00
2012-3-18,78.5,69.3,58.2,59.4,56.3,50.5,77,64,50,29.95,29.85,30,9,32,0.00
2012-3-19,73.2,66.3,60.2,61.6,59.2,56.8,91,78,65,29.93,29.80,21,7,28,0.02
2012-3-20,78.5,70.8,61.9,58.6,54.0,48.4,75,57,38,29.95,29.80,31,10,38,0.00
2012-3-21,78.7,69.6,60.7,57.9,53.9,48.8,84,59,39,30.06,29.95,22,5,26,0.00
2012-3-22,75.1,64.0,58.1,62.3,58.0,54.6,98,82,55,30.07,30.01,13,2,18,0.35
2012-3-23,60.7,58.0,55.5,60.1,57.4,55.5,100,98,90,30.03,29.82,8,1,13,0.19
2012-3-24,60.8,56.1,52.7,57.0,54.8,52.7,100,96,85,29.97,29.82,6,0,8,0.03
2012-3-25,65.0,54.9,45.2,54.6,44.7,26.8,100,74,29,30.20,29.97,12,2,18,0.01
2012-3-26,45.0,38.5,31.7,39.2,27.6,22.8,81,65,50,30.41,30.16,18,6,29,0.05
2012-3-27,75.3,54.7,38.7,57.8,39.3,25.9,71,57,29,30.17,29.62,33,14,40,0.00
2012-3-28,58.8,50.9,41.8,42.8,37.4,34.1,80,61,47,30.06,29.73,24,7,38,0.00
2012-3-29,53.4,41.6,31.4,36.2,32.6,28.5,90,71,48,30.17,29.92,17,4,23,0.00
2012-3-30,41.4,37.8,33.5,39.2,36.2,29.8,99,94,80,29.96,29.80,16,2,23,0.77
2012-3-31,42.1,38.7,35.5,39.1,36.9,34.7,99,94,87,29.99,29.78,10,3,14,0.00
2012-4-1,59.4,46.6,36.7,46.6,41.0,35.5,99,82,52,29.81,29.73,14,2,18,0.00
2012-4-2,64.5,51.7,42.3,41.9,38.4,35.0,83,62,42,29.92,29.81,19,6,25,0.00
2012-4-3,59.7,51.5,44.4,46.0,41.4,36.2,87,69,58,30.03,29.82,15,4,23,0.01
2012-4-4,63.7,49.7,34.1,38.2,31.3,25.4,86,54,26,30.08,29.96,12,2,16,0.00
2012-4-5,53.9,43.0,32.7,30.7,27.1,23.6,78,55,32,30.25,30.05,13,3,18,0.00
2012-4-6,58.4,43.4,28.3,32.6,28.7,23.5,88,59,33,30.36,30.22,14,2,16,0.00
2012-4-7,61.8,47.6,33.5,47.6,36.4,27.0,94,67,43,30.24,30.06,27,5,31,0.03
2012-4-8,58.7,48.4,39.7,41.1,31.2,24.8,88,53,30,30.26,30.05,26,5,34,0.11
2012-4-9,51.5,44.9,35.4,31.6,23.5,17.6,63,44,28,30.11,30.01,25,7,38,0.00
2012-4-10,42.4,34.5,28.5,20.4,18.3,15.0,67,52,37,30.24,30.10,15,5,26,0.00
2012-4-11,55.2,41.6,29.6,31.7,24.9,19.3,73,53,34,30.37,30.24,12,2,16,0.00
2012-4-12,61.5,47.1,29.8,33.8,28.4,24.2,87,53,27,30.27,30.14,9,1,13,0.00
2012-4-13,57.1,49.7,37.7,44.6,34.7,29.5,78,57,37,30.17,29.91,25,9,37,0.00
2012-4-14,73.2,59.5,48.6,58.2,47.6,38.9,97,70,30,29.94,29.75,20,5,24,0.23
2012-4-15,74.8,65.3,58.1,63.4,59.7,55.8,100,84,58,29.76,29.35,37,12,44,0.85
2012-4-16,65.0,47.9,38.1,56.5,39.3,29.7,89,72,61,30.21,29.28,31,12,37,0.08
2012-4-17,58.5,45.2,29.9,38.3,32.1,26.6,93,63,37,30.40,30.22,11,2,13,0.00
2012-4-18,67.8,56.9,49.3,50.1,43.7,37.9,74,62,46,30.21,29.90,20,7,29,0.00
2012-4-19,52.6,43.8,37.1,44.5,38.2,33.2,97,82,53,30.06,29.85,13,2,28,1.65
2012-4-20,53.6,42.1,34.5,37.5,33.6,27.9,97,75,38,30.08,29.85,11,4,18,0.03
2012-4-21,54.9,44.2,31.4,33.9,29.6,24.5,94,60,33,30.13,30.01,10,2,15,0.00
2012-4-22,55.7,46.4,36.5,36.7,27.4,21.3,71,50,29,30.20,30.05,10,2,15,0.00
2012-4-23,60.0,49.7,39.1,37.5,34.2,27.0,86,58,34,30.16,29.88,14,2,21,0.00
2012-4-24,69.1,53.6,41.7,43.6,33.7,26.1,72,49,30,29.88,29.66,6,0,10,0.00
2012-4-25,58.1,49.9,43.3,49.4,42.4,32.3,94,77,48,29.74,29.66,9,2,15,0.19
2012-4-26,53.4,46.8,37.1,43.3,33.4,22.1,97,64,30,30.20,29.73,17,4,25,0.00
2012-4-27,56.4,44.4,29.2,32.0,25.9,19.0,90,53,29,30.30,30.14,12,3,19,0.00
2012-4-28,44.9,41.7,39.7,40.0,33.0,17.1,96,74,33,30.28,30.08,14,3,25,0.23
2012-4-29,55.5,45.1,33.3,40.6,33.2,23.9,97,68,32,30.32,30.08,11,2,22,0.52
2012-4-30,54.3,46.8,41.0,46.4,43.6,40.5,100,89,72,30.08,29.93,6,0,12,0.04
2012-5-1,66.4,55.4,42.3,57.0,48.8,41.3,98,80,55,29.97,29.78,18,4,25,0.00
2012-5-2,81.7,68.4,57.5,65.6,59.9,55.8,99,77,50,29.84,29.59,12,2,15,0.67
2012-5-3,66.9,66.2,64.7,66.6,65.9,63.8,100,99,96,29.83,29.77,12,4,16,1.39
2012-5-4,66.6,60.5,53.0,66.3,56.0,47.0,99,85,67,30.08,29.80,11,4,20,0.43
2012-5-5,62.7,54.6,48.3,56.7,51.7,46.8,96,90,76,30.15,29.99,11,2,19,0.19
2012-5-6,63.2,55.8,50.6,59.1,54.0,49.8,99,94,85,30.07,29.90,12,2,20,0.71
2012-5-7,70.6,58.1,48.4,53.7,49.1,45.3,99,75,41,29.97,29.86,9,1,18,0.01
2012-5-8,59.7,54.0,49.6,48.2,45.3,43.0,87,73,58,29.90,29.84,12,1,22,0.00
2012-5-9,64.0,54.2,46.5,46.8,41.7,33.9,95,66,35,30.01,29.85,9,1,15,0.00
2012-5-10,70.3,57.0,39.1,44.5,38.6,27.7,96,56,26,30.03,29.95,9,1,13,0.00
2012-5-11,80.5,63.9,50.2,59.2,48.8,34.5,77,59,44,30.17,29.95,20,5,26,0.00
2012-5-12,69.8,59.9,49.1,49.8,42.1,33.9,86,56,29,30.31,30.17,7,1,14,0.00
2012-5-13,75.1,59.1,41.1,45.8,40.1,31.4,94,57,25,30.31,30.11,6,0,9,0.00
2012-5-14,80.3,65.9,48.5,50.5,43.5,38.2,84,48,26,30.11,29.93,11,1,15,0.00
2012-5-15,80.1,69.2,59.3,54.0,46.7,38.6,63,46,27,30.01,29.82,10,2,16,0.00
2012-5-16,71.6,58.6,44.9,45.7,40.6,34.1,89,55,29,30.15,30.02,7,0,11,0.00
2012-5-17,73.2,61.0,45.7,45.3,42.2,37.7,89,53,32,30.16,29.96,15,3,24,0.00
2012-5-18,84.7,71.2,59.3,54.4,46.0,38.4,64,42,28,29.97,29.87,14,4,21,0.00
2012-5-19,87.6,75.6,62.0,61.6,54.9,46.8,61,50,34,29.94,29.87,19,4,29,0.00
2012-5-20,82.0,71.3,53.9,64.4,58.0,46.9,85,64,45,30.08,29.84,24,6,34,0.00
2012-5-21,73.0,60.0,46.2,49.4,44.1,39.7,92,60,32,30.19,30.08,8,1,19,0.00
2012-5-22,75.8,61.8,46.0,48.2,44.4,39.0,91,57,31,30.12,29.85,8,1,12,0.00
2012-5-23,80.1,68.2,53.5,51.9,46.2,42.4,69,47,29,29.85,29.59,17,4,26,0.00
2012-5-24,88.8,74.3,61.8,66.8,55.7,45.5,94,55,33,29.63,29.35,27,8,39,0.24
2012-5-25,76.5,64.0,54.1,60.8,54.5,49.6,96,74,42,30.15,29.63,7,1,13,0.29
2012-5-26,69.6,62.3,58.3,62.4,59.6,57.3,100,91,75,30.15,29.96,10,2,20,0.30
2012-5-27,89.9,76.3,63.4,71.1,64.0,57.3,86,68,44,30.00,29.69,11,2,19,0.00
2012-5-28,83.4,76.3,67.8,68.1,62.9,52.1,82,64,48,29.74,29.60,19,4,30,0.00
2012-5-29,68.8,63.3,57.8,52.8,48.3,42.1,80,59,40,29.84,29.74,17,3,29,0.00
2012-5-30,63.7,56.5,52.0,49.8,45.5,42.6,88,67,52,29.98,29.84,9,1,13,0.00
2012-5-31,59.3,52.4,46.7,49.2,45.2,40.1,97,78,51,30.04,29.96,6,0,13,0.10
2012-6-1,69.6,56.8,42.6,44.8,41.3,31.9,96,61,32,29.96,29.73,7,1,14,0.00
2012-6-2,74.6,64.8,53.9,47.4,43.6,40.8,64,48,32,29.75,29.68,10,1,20,0.00
2012-6-3,80.1,69.1,55.9,56.2,50.1,45.1,72,52,32,29.84,29.74,9,1,16,0.00
2012-6-4,82.2,70.2,58.1,59.5,55.0,47.3,93,62,30,29.93,29.82,5,0,11,0.00
2012-6-5,72.0,63.1,54.2,59.0,54.9,51.8,92,75,53,30.04,29.93,8,0,15,0.00
2012-6-6,80.1,64.8,49.1,54.7,49.6,44.3,97,63,31,30.12,30.03,5,0,11,0.01
2012-6-7,83.0,68.9,51.6,59.7,53.5,49.4,93,62,36,30.13,30.02,6,0,9,0.00
2012-6-8,84.9,73.6,62.6,62.1,57.6,53.0,80,59,43,30.04,29.83,12,2,24,0.00
2012-6-9,87.2,77.6,67.8,60.2,57.1,52.8,67,51,33,29.85,29.76,14,4,19,0.00
2012-6-10,88.2,78.5,65.0,64.5,60.1,56.4,77,54,35,29.86,29.75,17,4,28,0.00
2012-6-11,83.4,74.1,64.8,68.1,61.9,48.6,96,68,42,29.88,29.71,15,4,24,0.20
2012-6-12,70.6,61.1,53.2,49.8,46.5,43.5,83,60,40,30.13,29.89,9,2,18,0.00
2012-6-13,72.8,62.4,48.0,52.4,48.1,45.4,93,63,40,30.18,30.03,7,1,13,0.00
2012-6-14,80.9,68.9,53.1,57.6,51.6,43.3,72,55,41,30.07,29.91,10,2,20,0.00
2012-6-15,89.9,77.7,65.0,64.6,59.8,53.8,70,55,37,30.03,29.91,11,2,16,0.00
2012-6-16,80.7,74.0,67.4,69.2,63.4,55.8,95,70,55,29.98,29.78,12,2,20,0.07
2012-6-17,83.0,72.4,60.4,67.1,58.1,50.2,96,64,33,29.88,29.64,8,1,15,0.01
2012-6-18,89.7,80.2,67.8,73.5,68.8,57.5,91,69,55,29.68,29.52,21,6,34,0.12
2012-6-19,91.2,84.0,77.9,71.7,68.5,65.2,74,61,44,29.82,29.67,19,5,29,0.00
2012-6-20,90.7,81.8,66.6,70.7,68.9,65.5,97,66,49,29.85,29.72,21,8,32,0.96
2012-6-21,78.8,69.6,62.0,65.5,59.7,55.8,98,73,48,29.99,29.80,8,1,21,0.12
2012-6-22,82.2,70.5,58.3,61.0,56.7,52.9,91,64,38,30.00,29.94,8,1,13,0.00
2012-6-23,79.8,69.6,56.7,63.3,59.5,54.1,92,71,53,30.02,29.95,7,0,14,0.00
2012-6-24,85.1,75.0,64.8,69.2,63.8,59.9,86,69,50,30.04,29.93,3,0,8,0.00
2012-6-25,79.6,68.9,56.3,63.6,50.6,44.0,86,55,32,30.16,30.04,8,1,14,0.00
2012-6-26,80.5,68.2,51.4,57.4,51.4,44.0,91,58,35,30.08,29.87,10,1,17,0.00
2012-6-27,92.1,78.7,63.4,72.1,61.0,53.2,74,56,40,29.87,29.68,14,3,22,0.00
2012-6-28,90.7,81.6,68.9,76.0,67.8,53.1,87,65,32,29.87,29.67,6,1,13,0.00
2012-6-29,91.4,76.6,60.7,65.4,59.8,49.0,92,61,27,29.90,29.77,5,0,9,0.00
2012-6-30,91.8,78.5,65.3,68.3,62.9,56.4,91,63,32,29.86,29.77,5,0,9,0.00
2012-7-1,94.8,78.8,62.4,69.8,64.0,60.0,94,64,33,29.96,29.86,6,0,12,0.00
2012-7-2,96.6,86.0,70.3,74.3,69.3,63.5,84,59,39,29.94,29.82,8,1,13,0.00
2012-7-3,96.1,84.6,73.9,73.4,69.6,63.0,84,62,39,29.91,29.73,12,2,18,0.00
2012-7-4,100.4,88.6,79.6,75.2,71.6,64.2,81,60,32,29.83,29.75,8,1,13,0.00
2012-7-5,100.2,88.9,77.6,78.7,73.2,69.8,85,62,41,29.92,29.82,6,0,11,0.00
2012-7-6,99.9,87.6,75.1,77.7,72.9,65.3,96,66,34,29.95,29.86,8,0,14,0.00
2012-7-7,85.1,78.4,70.1,71.2,66.9,61.4,88,69,50,30.07,29.88,5,0,9,0.00
2012-7-8,89.5,76.1,62.9,66.4,61.4,53.8,94,65,33,30.12,30.02,6,0,9,0.00
2012-7-9,89.3,76.4,63.9,65.9,59.8,51.2,93,60,34,30.08,30.02,6,0,13,0.00
2012-7-10,87.2,74.2,59.3,63.8,57.1,48.8,94,60,28,30.15,30.08,5,0,9,0.00
2012-7-11,90.3,75.5,60.5,59.6,55.0,51.1,78,52,28,30.16,30.05,7,0,11,0.00
2012-7-12,91.0,76.4,61.6,65.5,56.8,50.4,79,55,26,30.09,29.99,7,0,17,0.00
2012-7-13,87.0,77.2,63.9,66.4,62.0,56.6,82,61,40,30.04,29.96,9,1,14,0.00
2012-7-14,86.3,74.9,67.9,72.9,67.5,64.3,95,79,53,30.02,29.94,11,1,18,0.51
2012-7-15,94.9,81.6,68.6,73.1,68.7,60.5,97,69,33,30.04,29.95,3,0,7,0.00
2012-7-16,95.6,83.9,70.8,70.3,67.0,60.3,89,60,33,29.97,29.76,13,2,22,0.00
2012-7-17,98.2,85.8,75.3,72.5,69.3,65.3,82,60,37,29.86,29.75,10,1,17,0.00
2012-7-18,90.7,76.3,68.9,72.7,69.1,65.6,98,80,54,29.94,29.83,14,1,20,0.92
2012-7-19,73.3,68.5,61.3,70.8,64.6,58.0,100,88,71,30.07,29.87,5,0,11,0.33
2012-7-20,84.3,70.0,54.8,65.1,59.0,52.2,100,72,35,30.15,30.04,5,0,10,0.00
2012-7-21,87.2,74.6,65.8,70.1,66.3,61.3,89,76,53,30.08,29.98,7,0,11,0.02
2012-7-22,86.3,77.8,71.1,71.0,69.1,66.1,92,76,53,30.04,29.90,5,0,11,0.00
2012-7-23,97.8,84.7,72.7,77.2,71.3,64.2,89,67,35,29.91,29.86,9,0,15,0.00
2012-7-24,80.1,73.8,70.4,71.9,69.6,66.5,99,87,67,30.01,29.88,8,0,13,0.35
2012-7-25,95.6,80.7,65.5,76.2,69.0,60.4,86,69,49,29.89,29.54,13,2,26,0.00
2012-7-26,87.0,78.8,70.3,74.5,65.3,54.7,93,67,36,29.76,29.57,16,2,23,0.02
2012-7-27,81.2,71.9,64.7,66.7,62.3,59.6,93,73,50,30.05,29.75,7,0,15,0.00
2012-7-28,84.0,72.3,59.6,64.8,61.6,58.7,97,72,46,30.13,30.03,9,1,12,0.00
2012-7-29,78.1,71.2,65.6,67.7,64.7,62.3,94,80,64,30.06,29.96,10,1,20,0.00
2012-7-30,90.5,77.4,62.0,72.7,67.6,61.4,99,75,50,29.96,29.82,10,1,16,0.00
2012-7-31,88.6,76.3,64.2,66.1,62.6,57.9,91,65,37,29.95,29.87,5,0,11,0.00
2012-8-1,90.1,76.7,59.6,68.2,63.1,57.9,95,66,38,29.95,29.80,12,1,16,0.00
2012-8-2,86.5,76.0,67.3,71.8,68.0,62.6,97,78,56,29.89,29.80,12,0,17,0.38
2012-8-3,91.6,78.7,65.2,71.6,68.8,64.6,99,74,46,29.90,29.83,8,0,12,0.00
2012-8-4,84.0,72.6,66.0,69.9,66.5,61.3,95,82,57,29.95,29.80,10,1,22,0.09
2012-8-5,77.2,67.9,60.5,61.5,55.8,50.0,88,68,40,30.15,29.89,8,1,17,0.00
2012-8-6,82.6,68.6,53.2,61.0,55.9,51.5,95,67,42,30.15,29.95,8,1,13,0.00
2012-8-7,89.7,76.1,64.7,67.8,60.3,53.1,83,61,32,29.98,29.91,7,0,16,0.00
2012-8-8,77.2,68.7,58.7,66.6,61.3,55.1,92,78,65,30.02,29.94,6,0,12,0.00
2012-8-9,68.8,62.6,58.0,64.4,60.6,57.2,99,93,78,30.00,29.92,6,0,11,0.66
2012-8-10,75.3,64.4,55.9,59.5,54.2,49.4,100,73,43,30.05,29.97,9,1,20,0.01
2012-8-11,79.2,64.0,50.5,57.1,51.3,46.3,94,67,34,30.06,29.98,6,0,12,0.00
2012-8-12,77.2,65.5,56.2,61.7,57.1,52.8,92,76,50,30.00,29.95,8,0,12,0.00
2012-8-13,80.5,68.4,60.9,62.2,59.6,55.0,95,76,43,29.99,29.92,5,0,13,0.01
2012-8-14,81.1,70.1,58.7,62.8,59.5,54.6,98,72,43,29.96,29.88,5,0,11,0.00
2012-8-15,83.6,71.8,62.0,64.4,60.2,55.0,95,70,42,29.91,29.78,12,1,18,0.06
2012-8-16,72.7,67.1,60.7,66.1,59.6,52.0,100,78,59,29.96,29.68,19,2,30,1.01
2012-8-17,72.8,62.2,53.6,52.6,49.3,43.5,87,65,38,30.03,29.95,7,1,15,0.00
2012-8-18,76.7,62.1,47.4,55.0,49.8,46.3,97,68,36,30.02,29.94,4,0,8,0.00
2012-8-19,76.5,63.9,55.7,58.1,54.3,50.4,91,73,45,29.98,29.92,5,0,10,0.00
2012-8-20,76.3,62.4,48.0,54.0,47.9,41.0,93,64,31,30.01,29.95,8,0,12,0.00
2012-8-21,80.1,64.5,48.3,55.1,50.6,46.6,94,65,35,30.08,30.01,6,0,13,0.00
2012-8-22,85.3,69.3,52.5,61.4,54.8,49.0,89,63,36,30.06,29.97,10,1,16,0.00
2012-8-23,89.0,78.1,68.9,64.7,60.9,56.6,78,57,39,29.99,29.89,8,1,12,0.00
2012-8-24,88.6,77.0,65.0,64.6,61.0,56.2,94,60,34,29.99,29.88,14,2,22,0.05
2012-8-25,87.8,75.1,61.3,66.5,61.4,56.8,93,66,38,29.99,29.92,14,1,24,0.05
2012-8-26,79.9,70.6,66.6,70.2,68.1,66.2,100,92,71,30.01,29.93,6,0,10,0.79
2012-8-27,85.3,72.5,60.7,67.9,61.5,55.3,100,73,39,30.10,30.00,6,0,11,0.00
2012-8-28,81.4,69.5,57.3,68.1,61.6,56.5,98,78,47,30.15,30.03,5,0,7,0.00
2012-8-29,86.3,74.0,61.6,68.7,64.2,59.6,95,73,53,30.05,29.92,10,1,15,0.00
2012-8-30,89.5,79.4,70.9,67.8,65.9,64.1,80,65,46,29.93,29.83,21,6,30,0.00
2012-8-31,87.6,77.3,68.9,66.2,63.6,56.6,80,64,37,30.08,29.88,8,0,13,0.00
2012-9-1,83.8,71.3,59.8,60.9,55.8,49.3,85,61,32,30.12,30.02,11,1,22,0.00
2012-9-2,86.5,72.4,56.2,69.2,62.5,54.2,94,73,53,30.03,29.90,8,0,13,0.00
2012-9-3,84.0,71.9,63.9,73.4,67.4,62.1,98,86,66,29.93,29.85,6,0,10,0.14
2012-9-4,89.7,74.5,63.7,71.9,65.6,49.1,100,77,30,29.89,29.77,13,1,18,0.04
2012-9-5,83.4,71.0,62.0,63.6,60.9,57.5,95,72,47,29.88,29.73,12,1,23,0.08
2012-9-6,81.1,68.5,57.0,59.8,54.3,47.6,92,64,33,29.96,29.83,5,0,8,0.00
2012-9-7,66.1,61.2,53.5,57.2,54.5,47.6,90,79,62,29.92,29.83,8,0,16,0.00
2012-9-8,71.6,58.0,50.8,55.6,50.0,47.6,96,77,45,29.93,29.72,12,2,18,0.21
2012-9-9,71.8,58.2,49.5,54.8,51.0,47.9,99,80,45,30.14,29.92,6,0,11,0.00
2012-9-10,75.6,62.5,47.4,55.0,50.9,46.0,96,69,42,30.17,29.99,16,3,23,0.00
2012-9-11,84.5,71.7,59.8,59.8,56.1,51.6,77,59,39,30.00,29.90,19,5,28,0.00
2012-9-12,80.5,68.6,52.2,61.5,54.1,40.1,94,62,33,30.22,29.94,10,2,20,0.01
2012-9-13,66.1,56.1,50.2,53.9,50.3,45.1,95,82,50,30.33,30.22,4,0,8,0.09
2012-9-14,74.2,59.7,48.3,51.7,47.5,40.5,95,69,32,30.31,30.27,5,0,8,0.00
2012-9-15,78.3,60.3,42.2,52.7,45.6,40.6,94,64,31,30.29,30.07,12,2,21,0.00
2012-9-16,75.4,65.0,56.3,52.7,48.4,45.8,74,56,37,30.07,29.89,16,3,25,0.00
2012-9-17,65.6,57.5,47.9,56.6,51.9,46.1,95,82,63,29.91,29.83,10,1,20,0.08
2012-9-18,57.6,47.6,37.6,46.0,38.3,31.4,95,73,40,30.00,29.89,10,1,20,0.01
2012-9-19,73.3,55.5,34.7,56.2,41.7,31.4,89,62,39,29.99,29.67,24,5,34,0.01
2012-9-20,63.2,54.0,44.6,45.1,40.9,35.8,82,63,37,29.92,29.83,10,1,20,0.00
2012-9-21,62.3,53.0,43.6,52.7,42.3,37.8,88,68,48,29.90,29.79,11,1,17,0.02
2012-9-22,57.8,45.9,37.6,43.5,38.6,35.3,97,77,49,30.22,29.76,11,2,22,0.16
2012-9-23,57.2,45.8,34.3,38.0,34.7,31.8,93,68,39,30.30,30.22,10,1,17,0.00
2012-9-24,72.5,55.6,37.2,42.4,36.6,31.3,87,52,31,30.23,29.81,18,4,28,0.00
2012-9-25,73.9,60.7,48.0,48.2,43.7,39.3,82,55,32,29.93,29.78,8,1,13,0.00
2012-9-26,63.9,51.5,37.8,42.3,38.9,35.5,95,66,36,30.20,29.95,8,0,10,0.00
2012-9-27,67.3,51.1,33.1,44.2,39.4,31.8,97,69,37,30.33,30.23,6,0,8,0.00
2012-9-28,72.3,55.9,35.5,46.7,40.9,33.9,95,63,30,30.26,30.13,5,0,8,0.00
2012-9-29,77.0,58.4,42.6,49.6,42.9,38.9,92,62,27,30.13,30.01,5,0,8,0.00
2012-9-30,70.8,54.3,40.5,49.2,44.4,39.2,97,73,41,30.05,29.96,6,0,8,0.00
2012-10-1,71.6,56.0,43.6,49.1,44.3,40.0,88,68,40,29.96,29.85,7,0,11,0.00
2012-10-2,72.7,58.3,47.3,53.6,50.2,46.5,98,77,47,29.96,29.87,6,0,10,0.00
2012-10-3,74.2,57.8,42.2,53.1,48.0,41.4,99,74,43,30.00,29.94,6,0,10,0.00
2012-10-4,62.4,54.5,43.1,51.3,42.7,31.4,90,66,42,30.12,29.90,13,4,23,0.00
2012-10-5,50.4,43.6,37.0,32.1,29.2,25.3,78,58,42,30.13,30.04,12,4,21,0.00
2012-10-6,43.8,40.6,38.5,30.5,28.0,24.4,72,61,52,30.23,30.07,12,2,23,0.00
2012-10-7,50.8,42.0,34.4,27.3,23.2,17.7,69,49,31,30.23,30.07,9,1,13,0.00
2012-10-8,61.0,49.6,34.1,36.8,30.2,20.4,59,48,37,30.07,29.80,27,12,37,0.00
2012-10-9,55.0,46.9,39.5,46.9,40.4,34.1,94,80,46,29.90,29.76,17,3,26,0.46
2012-10-10,49.5,41.4,34.1,34.8,27.9,22.2,80,60,38,30.12,29.90,12,2,23,0.00
2012-10-11,54.1,46.9,34.4,36.6,29.8,19.4,64,51,36,30.36,29.92,21,4,31,0.00
2012-10-12,51.0,38.5,26.1,29.2,23.4,19.8,90,58,30,30.51,30.22,12,2,18,0.00
2012-10-13,61.2,49.9,39.9,61.2,48.9,26.8,100,97,57,30.22,29.70,11,1,16,1.14
2012-10-14,61.8,50.2,43.2,61.8,49.1,39.6,100,96,84,29.81,29.56,10,2,21,1.81
2012-10-15,58.9,46.5,37.8,41.5,38.5,35.1,92,76,48,29.99,29.81,7,1,12,0.01
2012-10-16,69.8,55.8,39.6,50.9,45.5,37.5,93,70,46,29.91,29.43,21,3,29,0.00
2012-10-17,64.2,56.6,48.6,56.3,51.4,46.7,97,84,63,29.44,29.26,21,3,26,0.31
2012-10-18,50.8,45.5,41.9,49.0,42.1,40.1,96,88,82,29.41,29.22,14,4,22,0.05
2012-10-19,50.7,45.0,41.9,43.6,41.5,39.5,99,88,69,29.69,29.41,11,0,15,0.01
2012-10-20,57.5,45.6,38.0,41.9,38.8,36.2,94,79,49,29.92,29.70,8,0,11,0.00
2012-10-21,66.0,50.4,34.4,50.1,42.4,33.1,96,77,49,30.00,29.92,13,2,17,0.00
2012-10-22,63.4,55.7,47.3,55.9,51.3,45.9,96,86,75,29.97,29.89,9,1,18,0.00
2012-10-23,65.3,57.8,52.8,62.5,56.4,51.5,99,95,86,29.94,29.80,9,1,16,0.01
2012-10-24,73.5,66.9,59.3,66.2,63.5,58.6,100,89,77,29.87,29.68,13,2,16,0.00
2012-10-25,71.3,56.1,38.0,66.2,51.2,29.4,94,84,68,30.10,29.53,23,10,34,0.37
2012-10-26,43.2,38.4,33.8,30.1,27.1,25.0,75,64,53,30.39,30.10,16,4,21,0.00
2012-10-27,44.9,37.1,31.0,28.1,22.1,14.7,78,57,32,30.42,30.36,9,1,12,0.00
2012-10-28,48.6,35.7,25.4,26.6,23.3,18.5,89,64,33,30.43,30.37,7,0,13,0.00
2012-10-29,50.4,35.8,23.6,29.0,23.2,18.4,92,64,30,30.42,30.24,7,0,10,0.00
2012-10-30,47.0,37.0,31.2,29.7,25.2,19.0,86,64,35,30.24,29.98,14,5,22,0.00
2012-10-31,47.4,35.9,27.6,26.7,21.7,13.8,84,59,27,29.97,29.92,12,4,24,0.00
2012-11-1,49.2,41.6,32.9,32.1,24.8,15.4,85,52,36,30.01,29.89,13,2,17,0.00
2012-11-2,44.9,35.1,27.0,29.3,25.6,20.8,91,70,41,30.21,30.01,6,0,7,0.00
2012-11-3,45.7,37.0,31.8,30.2,27.5,25.1,79,69,52,30.30,30.20,6,0,8,0.00
2012-11-4,47.6,36.7,29.1,31.3,27.9,24.9,85,71,48,30.30,30.22,6,0,10,0.00
2012-11-5,43.9,32.7,23.8,31.2,26.1,21.8,94,78,53,30.29,30.12,12,1,20,0.00
2012-11-6,36.0,34.6,29.1,35.5,32.4,26.5,98,92,78,30.12,29.84,11,3,18,0.13
2012-11-7,36.6,35.2,34.1,35.5,33.8,32.6,99,94,87,30.18,29.94,6,0,7,0.00
2012-11-8,51.3,41.4,34.6,38.0,35.1,32.2,93,79,60,30.17,30.04,18,4,23,0.00
2012-11-9,49.8,43.0,35.5,43.0,38.8,33.4,92,85,70,30.09,30.02,11,2,20,0.00
2012-11-10,67.3,55.9,44.2,55.2,48.9,42.6,94,79,53,30.05,29.70,24,7,30,0.00
2012-11-11,65.6,50.2,28.5,54.8,45.0,21.6,97,83,53,29.94,29.63,31,9,41,0.87
2012-11-12,28.7,25.6,23.6,22.4,17.0,14.2,85,70,63,30.34,29.94,18,8,23,0.00
2012-11-13,39.2,29.7,19.7,23.0,19.3,15.6,85,66,45,30.50,30.34,11,2,13,0.00
2012-11-14,49.9,41.0,34.1,32.6,28.4,22.0,68,61,48,30.47,30.31,17,6,23,0.00
2012-11-15,53.3,42.0,32.4,33.5,30.8,28.5,92,66,45,30.40,30.26,16,4,18,0.00
2012-11-16,47.0,36.0,27.0,35.7,30.4,23.1,95,81,63,30.53,30.40,9,0,10,0.00
2012-11-17,53.8,40.6,29.4,39.0,33.6,29.2,100,79,53,30.51,30.41,18,2,23,0.00
2012-11-18,57.5,46.1,33.4,35.3,33.4,29.9,89,63,39,30.41,30.27,16,3,25,0.00
2012-11-19,49.8,47.4,44.9,41.2,37.3,34.2,83,68,60,30.27,30.08,22,1,29,0.00
2012-11-20,57.2,46.4,38.3,44.7,40.8,36.6,96,82,60,30.17,30.07,6,0,7,0.00
2012-11-21,59.6,46.8,33.4,45.4,40.7,32.2,100,81,56,30.17,29.94,22,6,29,0.01
2012-11-22,61.5,52.4,35.5,47.6,40.6,25.7,75,64,54,29.94,29.66,27,13,32,0.00
2012-11-23,35.5,26.9,24.1,26.4,17.9,13.7,74,68,65,30.29,29.84,24,10,31,0.00
2012-11-24,31.2,25.9,19.2,20.6,15.8,11.6,75,66,54,30.31,29.91,17,3,22,0.00
2012-11-25,36.5,29.7,24.7,23.3,20.8,18.3,80,69,56,30.15,29.85,14,3,17,0.00
2012-11-26,28.2,23.4,15.7,22.5,12.7,5.6,82,64,45,30.43,30.14,12,2,18,0.00
2012-11-27,30.6,23.0,12.6,15.9,11.7,6.5,80,63,48,30.43,30.21,16,5,21,0.00
2012-11-28,38.5,30.3,20.6,24.0,20.4,15.2,84,67,53,30.40,30.20,8,1,11,0.00
2012-11-29,47.9,38.0,30.6,31.9,28.3,23.7,85,68,53,30.20,30.09,10,2,17,0.00
2012-11-30,36.3,34.1,31.8,34.1,31.9,29.8,95,92,85,30.22,30.12,11,2,18,0.00
2012-12-1,51.1,42.7,36.2,51.1,40.5,33.8,100,92,82,30.18,29.82,11,2,15,0.00
2012-12-2,51.3,43.0,36.8,51.3,41.2,35.2,100,93,83,30.06,29.83,7,1,10,0.00
2012-12-3,62.3,50.7,38.8,58.6,48.2,36.9,100,92,71,29.99,29.63,18,6,23,0.01
2012-12-4,47.3,39.8,25.0,37.0,26.7,13.4,73,60,45,30.39,29.94,19,5,28,0.00
2012-12-5,34.9,26.9,17.0,26.0,16.6,11.7,80,66,48,30.49,30.16,11,2,15,0.00
2012-12-6,44.8,39.6,34.4,36.6,32.2,26.0,80,75,70,30.16,29.85,18,6,24,0.00
2012-12-7,39.1,33.6,30.3,30.5,25.5,21.7,82,72,52,30.04,29.94,8,2,13,0.00
2012-12-8,38.0,31.0,25.3,26.2,24.3,22.0,88,77,60,30.15,30.00,8,1,13,0.00
2012-12-9,32.1,31.5,30.9,31.3,29.4,25.7,98,92,79,30.14,29.74,10,1,13,0.01
2012-12-10,31.3,26.8,22.4,30.8,24.7,19.6,99,92,85,29.95,29.74,0,0,0,0.01
2012-12-11,25.4,22.4,17.8,22.3,18.2,13.9,91,84,74,30.11,29.92,12,3,15,0.00
2012-12-12,40.9,32.8,21.3,28.0,23.9,19.1,93,71,51,30.18,30.08,26,8,30,0.06
2012-12-13,42.8,35.3,25.4,25.0,23.1,21.1,90,62,46,30.15,30.06,18,6,24,0.01
2012-12-14,44.2,32.1,21.6,32.6,26.2,19.9,94,80,54,30.23,29.98,8,1,13,0.00
2012-12-15,40.5,38.6,35.6,40.2,37.3,32.1,100,95,84,29.98,29.52,10,2,18,0.41
2012-12-16,40.5,36.1,30.1,40.5,34.9,27.8,100,95,90,29.75,29.52,11,3,17,0.08
2012-12-17,30.1,25.6,24.1,27.8,22.1,20.8,91,86,84,29.80,29.73,9,1,13,0.00
2012-12-18,28.8,26.9,24.7,26.9,24.3,21.5,94,90,84,29.88,29.68,9,1,12,0.00
2012-12-19,33.7,31.0,27.5,29.1,27.7,25.0,94,87,81,30.08,29.88,10,1,12,0.05
2012-12-20,30.6,29.1,24.1,30.6,28.5,22.1,100,98,92,29.90,29.44,22,10,28,0.00
2012-12-21,24.1,17.6,12.8,21.9,12.3,8.1,92,80,67,30.27,29.75,18,7,26,0.00
2012-12-22,27.2,15.7,5.8,13.5,8.8,2.5,89,75,51,30.25,30.02,9,1,10,0.01
2012-12-23,25.6,18.2,9.9,16.5,13.2,7.1,89,81,67,30.13,30.01,6,0,12,0.00
2012-12-24,26.4,19.6,15.4,16.7,13.8,8.2,89,78,61,30.23,30.00,10,1,15,0.00
2012-12-25,21.0,11.8,4.1,10.0,4.8,0.0,83,73,61,30.47,30.23,9,2,13,0.00
2012-12-26,26.1,16.3,7.9,16.3,10.1,2.2,84,77,65,30.41,30.25,8,1,11,0.00
2012-12-27,24.5,20.6,15.7,18.0,14.6,10.6,89,78,67,30.29,30.19,6,0,11,0.00
2012-12-28,25.1,22.1,19.9,22.6,19.9,17.2,93,91,89,30.18,29.97,5,0,8,0.00
2012-12-29,22.1,19.3,11.6,20.4,15.7,7.0,93,86,78,30.21,29.97,10,2,17,0.00
2012-12-30,29.7,16.0,6.7,22.6,10.3,3.4,86,78,66,30.34,29.97,15,3,22,0.00
2012-12-31,29.7,17.4,5.4,23.0,10.9,-1.1,86,75,63,30.25,29.96,13,3,20,0.00
2013-1-1,15.1,7.4,-1.4,7.4,-1.5,-6.3,81,67,50,30.34,30.19,7,1,10,0.00